Temp
79 77 75 74 73 70 70 70 69 68 68 67 69 70 71 71 72 73 73 73 73 72 72 72 72 72 70 70 70 69 69 68 65 67 68 68 68 68 69 69 70 70 70
80 77 76 74 72 71 70 70 69 68 67 67 67 68 69 70 70 72 73 74 74 72 73 72 73 75 72 71 70 70 69 68 67 65 66 67 67 68 67 66 69 73 70
78 78 76 73 72 72 71 69 69 68 68 67 68 68 69 69 69 71 72 73 73 73 73 72 72 72 70 70 70 69 69 69 67 66 66 66 68 67 68 67 68 69 71
79 78 76 75 74 73 72 70 69 68 68 67 67 68 67 68 70 73 74 73 73 74 73 72 72 71 70 70 70 68 67 66 66 66 65 65 65 67 66 66 66 66 67
78 77 77 77 76 74 72 71 69 69 69 68 68 67 69 70 73 74 74 73 72 71 71 71 70 72 72 70 68 66 66 65 64 64 64 64 64 64 64 64 64 64 66
77 77 77 76 74 74 73 71 70 69 69 69 69 70 71 74 72 72 75 73 72 70 68 68 67 69 69 69 69 70 69 66 64 63 63 63 64 64 65 64 64 63 63
78 77 76 76 76 75 74 73 72 70 70 70 71 72 73 74 69 70 71 72 70 68 68 68 68 68 65 63 66 68 68 68 68 66 64 63 64 65 65 64 63 63 63
77 77 77 77 77 77 75 74 74 73 72 72 73 73 73 73 67 68 70 71 69 68 68 68 64 62 62 62 62 63 64 64 64 67 65 66 66 67 67 66 65 65 64
77 77 77 78 77 76 76 75 76 74 73 73 74 74 73 70 65 66 70 69 69 68 67 65 63 61 64 63 61 60 60 62 66 66 66 65 66 66 67 64 63 63 62
78 78 78 79 78 77 77 77 75 74 75 75 74 74 70 70 63 63 68 69 66 64 62 62 65 62 61 62 59 57 57 58 59 66 66 66 64 65 66 65 64 61 64
81 80 77 79 79 79 78 75 75 75 74 73 73 72 70 69 65 61 63 69 67 63 61 60 60 61 59 59 59 58 58 59 62 59 59 59 59 60 60 61 62 64 63
81 79 77 78 79 78 77 75 75 75 74 73 71 68 68 67 63 60 61 64 66 65 62 60 59 58 57 58 58 59 60 60 57 56 56 55 56 56 57 58 59 60 61
79 78 77 78 79 79 77 75 75 75 75 72 71 69 66 64 63 61 59 61 63 64 63 61 58 56 56 57 59 59 59 56 55 54 53 53 54 55 55 57 56 58 57
77 77 78 76 77 77 79 79 77 75 75 73 71 70 66 61 62 61 61 62 62 62 62 60 58 57 58 57 56 55 54 53 53 52 52 52 52 53 53 53 52 51 52
77 77 77 78 74 75 75 72 78 78 75 75 74 73 67 64 65 62 61 63 63 61 59 57 55 54 55 54 52 52 52 52 52 51 51 51 51 51 51 51 50 48 48
77 75 76 76 74 75 68 64 52 54 54 58 61 69 70 63 55 54 52 53 53 54 57 56 55 54 54 53 52 51 50 54 51 51 50 50 50 50 50 50 50 47 47
76 75 74 72 73 71 70 72 70 59 52 52 53 56 57 57 53 51 49 49 51 55 59 58 58 56 54 54 52 51 51 50 51 50 50 49 49 49 49 48 48 47 48
74 64 74 74 74 71 71 73 73 67 68 66 56 57 54 52 51 50 49 50 53 55 58 59 59 57 54 54 52 51 51 50 49 49 49 49 48 49 48 47 47 46 46
72 72 73 73 73 70 71 71 70 69 69 71 66 54 51 47 48 48 49 62 60 61 60 59 60 58 56 56 54 51 52 51 50 49 48 48 48 47 46 46 46 48 48
72 68 70 72 69 70 70 69 68 68 69 70 69 66 54 54 54 54 56 63 61 61 59 60 59 59 57 56 53 51 50 50 48 48 47 47 46 46 46 46 46 46 45
70 70 69 71 69 69 69 68 68 67 67 66 65 61 53 59 62 59 58 60 61 61 60 59 59 57 57 55 54 52 51 50 48 47 46 45 45 45 45 45 45 45 46
68 68 68 69 69 68 68 67 66 66 64 63 63 60 50 57 63 62 60 61 61 61 61 60 61 59 58 57 56 53 51 50 47 46 45 45 45 44 44 44 44 45 45
68 66 66 65 68 64 66 67 65 65 63 62 62 59 54 57 61 61 61 62 61 61 61 62 60 59 58 57 57 55 52 51 50 47 45 44 43 43 43 43 44 44 44
68 67 66 65 66 66 67 66 66 58 61 61 60 58 56 58 59 59 59 60 60 60 60 62 62 61 56 56 55 54 52 48 48 48 46 44 43 42 43 43 44 44 44
68 66 66 65 66 66 66 66 65 64 62 62 60 59 57 58 58 59 59 59 59 61 61 61 61 60 58 55 54 52 45 40 46 43 43 44 43 43 43 43 44 43 44
67 67 66 64 64 64 65 66 67 66 64 65 63 61 60 59 59 59 60 59 59 60 60 59 58 58 56 55 53 45 36 38 42 40 42 41 41 42 43 43 45 43 44
MSLP
1010.42 1011.03 1011.81 1012.46 1012.81 1013.40 1013.83 1014.11 1014.45 1014.90 1015.32 1015.76 1015.80 1016.02 1016.27 1016.43 1016.40 1016.47 1016.46 1016.60 1016.81 1016.92 1016.87 1017.01 1017.17 1017.26 1017.31 1017.42 1017.56 1017.68 1017.82 1017.89 1018.05 1017.50 1017.24 1016.96 1016.89 1016.82 1016.79 1016.82 1016.81 1016.76 1016.66
1009.59 1010.47 1011.33 1012.04 1012.70 1013.26 1013.65 1013.74 1014.15 1014.78 1015.25 1015.45 1015.58 1015.86 1016.09 1016.36 1016.26 1016.44 1016.27 1016.51 1016.47 1016.79 1016.65 1016.85 1017.02 1016.99 1017.08 1017.03 1017.26 1017.43 1017.55 1017.64 1017.82 1017.78 1017.33 1017.07 1016.93 1016.66 1016.69 1016.79 1016.55 1016.38 1016.44
1009.14 1010.07 1010.95 1011.70 1012.38 1012.95 1013.42 1013.56 1013.90 1014.67 1015.15 1015.44 1015.58 1015.63 1015.93 1015.83 1016.17 1016.20 1016.19 1016.32 1016.36 1016.44 1016.51 1016.69 1016.90 1016.87 1017.03 1017.02 1017.04 1017.24 1017.31 1017.28 1017.42 1017.60 1017.60 1017.38 1017.08 1016.97 1016.97 1016.89 1016.71 1016.38 1016.23
1008.76 1009.68 1010.39 1011.06 1011.69 1012.42 1013.13 1013.54 1013.73 1014.10 1014.92 1015.16 1015.31 1015.36 1015.53 1015.62 1015.81 1015.66 1015.84 1016.02 1016.31 1016.36 1016.38 1016.57 1016.76 1016.88 1017.03 1017.03 1017.09 1017.21 1017.32 1017.36 1017.45 1017.55 1017.62 1017.65 1017.51 1017.15 1017.04 1017.12 1016.99 1016.85 1016.67
1008.39 1009.23 1009.71 1010.35 1011.13 1012.08 1012.84 1013.31 1013.52 1013.83 1014.04 1014.66 1014.99 1014.98 1015.08 1015.23 1015.22 1015.38 1015.51 1015.87 1016.15 1016.41 1016.62 1016.84 1016.99 1017.02 1017.11 1017.12 1017.16 1017.18 1017.15 1017.37 1017.49 1017.56 1017.74 1017.68 1017.55 1017.45 1017.41 1017.53 1017.49 1017.37 1016.96
1008.00 1008.67 1009.42 1010.11 1010.75 1011.44 1012.16 1012.91 1013.27 1013.66 1014.00 1014.31 1014.54 1014.70 1014.81 1014.87 1015.07 1015.24 1015.48 1015.77 1016.20 1016.60 1016.96 1017.25 1017.29 1017.26 1017.34 1017.35 1017.23 1017.10 1017.12 1017.26 1017.38 1017.47 1017.58 1017.66 1017.49 1017.43 1017.44 1017.52 1017.68 1017.73 1017.50
1007.48 1008.25 1008.92 1009.62 1010.19 1010.79 1011.48 1012.24 1012.67 1013.14 1013.51 1013.87 1014.10 1014.46 1014.58 1014.68 1014.91 1015.15 1015.19 1015.79 1016.28 1016.66 1017.08 1017.33 1017.38 1017.55 1017.58 1017.47 1017.33 1017.35 1017.35 1017.25 1017.16 1017.16 1017.31 1017.33 1017.33 1017.27 1017.35 1017.34 1017.52 1017.63 1017.47
1007.05 1007.67 1008.41 1009.03 1009.58 1010.31 1010.95 1011.46 1011.86 1012.34 1012.82 1013.27 1013.62 1013.84 1014.18 1014.47 1014.72 1015.02 1015.35 1015.74 1016.17 1016.72 1017.05 1017.22 1017.49 1017.67 1017.66 1017.60 1017.53 1017.44 1017.42 1017.28 1017.00 1016.93 1016.96 1017.03 1017.06 1016.89 1016.83 1016.87 1016.97 1017.02 1016.89
1006.34 1007.00 1007.64 1008.28 1009.00 1009.66 1010.16 1010.75 1011.23 1011.73 1012.12 1012.37 1012.77 1013.39 1013.87 1014.27 1014.48 1014.63 1015.21 1015.68 1016.29 1016.86 1017.16 1017.45 1017.57 1017.75 1017.84 1017.81 1017.74 1017.81 1017.66 1017.42 1016.93 1016.81 1016.79 1016.78 1016.62 1016.34 1016.35 1016.71 1016.92 1017.07 1016.99
1005.44 1005.95 1006.76 1007.50 1008.13 1008.65 1009.07 1009.69 1010.30 1010.84 1011.33 1011.68 1012.24 1012.77 1013.14 1013.76 1014.28 1014.67 1014.99 1015.57 1016.44 1016.96 1017.31 1017.52 1017.65 1017.74 1017.73 1017.79 1017.94 1018.09 1017.89 1017.69 1017.41 1016.99 1016.96 1016.83 1016.80 1016.76 1016.73 1016.83 1016.97 1017.20 1017.23
1004.10 1005.13 1006.10 1006.75 1007.13 1007.49 1008.33 1009.08 1009.64 1010.26 1010.84 1011.36 1011.95 1012.42 1012.92 1013.44 1013.98 1014.40 1014.97 1015.41 1015.99 1016.73 1017.23 1017.60 1017.83 1017.85 1017.93 1018.06 1018.13 1018.13 1017.95 1017.83 1017.76 1017.51 1017.46 1017.38 1017.38 1017.41 1017.35 1017.22 1017.23 1017.34 1017.40
1004.04 1004.86 1005.55 1005.98 1006.47 1007.10 1007.71 1008.47 1009.17 1009.86 1010.50 1011.13 1011.75 1012.42 1012.85 1013.28 1013.75 1014.25 1014.55 1014.88 1015.37 1016.07 1016.80 1017.22 1017.70 1017.81 1018.12 1018.22 1018.22 1018.09 1017.95 1018.22 1018.26 1018.21 1018.23 1018.10 1017.89 1017.68 1017.58 1017.49 1017.52 1017.40 1017.24
1003.49 1004.27 1005.00 1005.63 1006.16 1006.54 1007.18 1007.98 1008.80 1009.31 1009.82 1010.59 1011.31 1012.04 1012.77 1013.22 1013.59 1013.93 1014.25 1014.62 1014.98 1015.55 1016.10 1016.91 1017.39 1017.84 1018.21 1018.28 1018.25 1018.25 1018.27 1018.50 1018.79 1018.86 1018.84 1018.66 1018.46 1018.30 1017.94 1017.69 1017.50 1017.47 1017.58
1002.90 1003.82 1004.60 1005.22 1005.69 1006.27 1007.00 1007.71 1008.15 1008.60 1009.12 1009.78 1010.56 1011.34 1012.18 1013.08 1013.49 1013.64 1014.16 1014.44 1014.79 1015.27 1015.95 1016.76 1017.37 1017.97 1018.11 1018.18 1018.20 1018.39 1018.63 1018.85 1018.99 1019.18 1019.03 1018.71 1018.75 1018.77 1018.78 1018.51 1018.33 1018.15 1018.33
1002.82 1003.49 1004.12 1004.65 1005.34 1006.14 1007.00 1007.75 1007.78 1007.76 1008.09 1008.75 1009.47 1010.15 1011.06 1011.65 1012.27 1012.90 1013.41 1014.15 1014.60 1015.17 1016.05 1016.88 1017.72 1018.10 1018.27 1018.49 1018.75 1018.92 1019.04 1019.16 1019.30 1019.26 1019.35 1019.18 1019.12 1019.12 1019.09 1018.99 1018.89 1018.85 1018.99
1002.53 1003.26 1003.74 1004.36 1005.24 1005.88 1006.91 1007.92 1008.18 1008.04 1008.07 1008.48 1008.97 1009.48 1010.29 1010.93 1011.54 1012.21 1013.13 1013.45 1014.01 1014.83 1015.87 1016.60 1017.19 1017.62 1017.93 1018.35 1018.73 1019.14 1019.26 1019.39 1019.65 1019.49 1019.55 1019.65 1019.70 1019.71 1019.59 1019.61 1019.66 1019.71 1019.46
1001.80 1002.69 1003.50 1004.16 1004.89 1005.67 1006.37 1007.04 1007.87 1008.53 1008.31 1008.62 1008.71 1009.26 1009.68 1010.21 1011.38 1011.93 1012.94 1013.53 1013.71 1014.34 1015.25 1016.08 1016.28 1016.66 1017.11 1017.67 1018.00 1018.38 1018.82 1018.98 1019.25 1019.54 1019.61 1019.81 1019.98 1019.97 1019.88 1019.97 1020.07 1020.08 1019.81
1001.67 1002.49 1003.19 1003.94 1004.57 1005.32 1005.91 1006.41 1007.02 1007.82 1008.35 1008.87 1009.16 1009.03 1009.47 1010.07 1010.33 1011.65 1012.67 1014.16 1014.68 1014.45 1014.18 1015.05 1015.34 1015.50 1016.27 1016.87 1017.48 1018.15 1018.39 1018.51 1019.00 1019.31 1019.67 1019.92 1019.93 1019.99 1020.12 1020.29 1020.32 1020.37 1020.24
1001.90 1002.68 1003.26 1003.91 1004.45 1004.99 1005.64 1006.26 1006.76 1007.34 1007.63 1007.70 1008.35 1009.14 1009.15 1008.92 1009.52 1010.17 1010.44 1012.04 1012.89 1013.33 1013.44 1014.03 1014.36 1014.73 1015.35 1016.06 1016.76 1017.31 1017.65 1018.32 1018.72 1018.90 1019.39 1019.70 1019.88 1020.10 1020.28 1020.36 1020.40 1020.24 1020.25
1002.12 1002.62 1003.21 1003.78 1004.37 1004.87 1005.29 1005.84 1006.34 1006.85 1007.25 1007.47 1007.90 1008.46 1009.50 1010.24 1010.50 1011.06 1011.23 1010.50 1010.89 1011.63 1012.37 1013.26 1014.02 1014.09 1014.64 1015.47 1016.34 1016.87 1017.43 1017.85 1018.43 1018.66 1018.94 1019.43 1019.65 1019.85 1020.26 1020.43 1020.52 1020.42 1020.21
1002.26 1002.72 1002.98 1003.50 1004.13 1004.53 1004.86 1005.25 1005.80 1006.37 1006.73 1007.09 1007.37 1007.98 1008.73 1009.30 1009.33 1009.62 1010.03 1009.42 1009.90 1010.13 1011.17 1012.43 1013.49 1013.56 1013.99 1014.86 1015.84 1016.48 1016.84 1017.32 1017.78 1018.35 1018.64 1019.09 1019.54 1020.06 1020.17 1020.31 1020.32 1020.30 1020.07
1002.26 1002.67 1003.13 1003.56 1003.98 1004.41 1004.73 1005.09 1005.59 1006.07 1006.53 1006.98 1007.44 1007.66 1007.90 1008.16 1008.32 1008.20 1007.66 1008.50 1008.78 1009.63 1010.35 1011.59 1012.66 1012.78 1013.19 1014.04 1014.76 1015.52 1016.22 1016.73 1017.09 1017.75 1018.28 1018.63 1019.23 1019.73 1019.93 1020.15 1020.26 1020.17 1020.01
1002.25 1002.75 1003.18 1003.64 1003.97 1004.23 1004.63 1004.94 1005.33 1005.70 1006.16 1006.66 1006.95 1007.16 1007.33 1007.14 1007.03 1007.31 1007.06 1007.73 1008.36 1009.29 1010.49 1011.20 1011.60 1012.02 1012.44 1013.14 1013.67 1014.18 1014.91 1015.55 1016.04 1016.82 1017.72 1018.17 1018.87 1019.51 1019.89 1020.07 1020.11 1019.98 1019.67
1002.16 1002.56 1002.97 1003.47 1003.93 1004.20 1004.47 1004.77 1005.07 1005.37 1005.79 1006.09 1006.29 1006.53 1006.96 1006.89 1007.04 1006.87 1006.45 1007.38 1008.27 1009.31 1010.09 1010.61 1010.83 1011.05 1011.87 1012.55 1012.95 1013.63 1014.22 1014.75 1015.24 1016.16 1016.99 1017.84 1018.60 1019.24 1019.74 1019.99 1019.91 1019.62 1019.58
1002.01 1002.36 1002.75 1003.18 1003.60 1004.02 1004.32 1004.47 1004.77 1005.00 1005.36 1005.64 1005.93 1006.10 1006.44 1006.58 1006.53 1006.66 1006.45 1007.03 1008.20 1009.18 1009.57 1009.71 1009.95 1010.26 1010.94 1011.77 1012.51 1013.21 1013.88 1014.33 1014.94 1015.59 1016.55 1017.37 1018.06 1018.62 1019.29 1019.51 1019.46 1019.49 1019.40
1001.70 1001.98 1002.26 1002.58 1003.07 1003.44 1003.72 1004.00 1004.23 1004.44 1004.65 1004.96 1005.20 1005.41 1005.71 1005.96 1006.20 1006.25 1006.22 1006.88 1007.72 1008.52 1008.69 1008.87 1009.18 1009.54 1010.34 1011.10 1011.72 1012.88 1013.61 1014.12 1014.96 1015.44 1016.13 1017.06 1017.67 1018.14 1018.65 1018.84 1019.00 1018.96 1018.91
Wind_Speed
12 10 10 9 8 7 7 7 6 4 4 4 5 5 5 5 2 4 3 3 3 4 3 4 4 3 2 3 3 2 2 3 3 3 2 1 3 3 4 4 4 4 4
13 11 10 10 8 7 6 7 5 5 3 4 5 7 6 6 1 4 3 4 4 4 3 3 2 1 1 1 2 2 2 2 2 2 2 2 4 1 2 3 3 3 4
12 11 10 11 11 10 8 7 5 5 5 5 5 7 7 5 5 5 5 4 3 3 4 4 2 2 1 1 1 2 2 1 1 1 2 1 2 1 2 2 2 3 2
13 12 12 12 12 11 8 7 6 6 7 7 7 7 7 6 6 5 5 4 4 4 4 3 2 2 3 2 1 1 1 1 1 1 1 2 1 2 1 1 3 2 2
13 13 13 11 10 9 9 9 7 6 5 5 6 6 5 5 4 5 5 5 6 5 4 4 3 4 4 2 2 2 2 1 1 0 1 1 1 2 2 2 1 2 2
13 13 10 9 9 10 9 8 7 7 6 5 6 6 6 4 6 7 6 6 5 5 5 4 3 5 4 5 4 2 4 3 2 2 1 2 2 1 0 1 1 2 3
14 12 12 11 11 11 9 9 10 10 7 8 7 5 7 5 7 7 8 5 6 5 5 5 3 3 4 2 5 6 6 4 5 3 2 3 1 2 1 0 0 0 2
14 13 12 12 13 11 11 11 10 9 11 9 9 9 7 5 9 9 9 7 6 5 6 5 5 2 2 2 2 3 2 4 4 2 4 2 3 4 4 3 3 3 3
15 15 14 14 13 12 13 12 9 8 8 8 7 8 7 6 9 10 10 7 6 5 4 5 5 3 3 2 4 2 1 2 4 5 5 5 4 6 5 3 0 2 2
15 16 15 15 14 14 13 13 9 8 9 8 8 7 8 7 7 7 7 5 6 4 4 4 4 4 5 5 4 2 2 3 2 3 3 4 7 8 8 3 2 2 1
18 15 14 15 16 15 11 6 8 9 6 7 7 6 6 7 8 10 9 6 6 5 4 3 2 5 6 5 5 2 2 2 4 4 4 4 4 5 3 4 4 2 0
13 13 13 14 12 9 12 9 9 9 9 8 7 5 4 5 8 9 11 9 9 7 6 4 4 8 7 6 3 2 4 3 2 3 3 3 3 2 3 4 4 4 4
14 14 14 12 11 10 12 11 8 10 9 8 7 7 5 4 4 8 10 10 12 6 6 7 9 8 8 6 6 5 5 3 2 2 2 2 2 2 2 2 3 4 4
14 13 11 12 12 10 9 9 9 9 9 8 8 7 5 4 5 4 4 5 9 6 11 7 5 6 5 5 4 4 3 2 3 2 2 1 2 2 3 3 2 3 3
11 10 11 9 10 9 5 3 8 9 9 10 10 10 10 10 10 9 10 7 7 8 9 5 4 3 4 2 2 1 1 1 1 1 0 1 2 2 2 3 2 3 3
11 9 9 8 7 7 6 4 9 6 2 7 10 10 6 4 14 16 12 13 14 17 5 4 4 4 5 5 5 3 1 2 1 1 1 1 1 1 1 2 2 2 1
11 9 6 6 6 6 6 7 7 4 11 3 11 14 15 15 18 18 14 13 18 13 4 6 7 7 6 7 6 5 4 4 4 2 2 1 1 1 2 1 1 2 2
8 10 7 6 6 6 6 7 6 6 5 3 2 6 11 13 16 16 15 11 5 4 4 6 7 7 5 7 6 5 4 4 3 2 2 2 2 2 1 1 1 0 2
7 6 5 5 5 7 6 5 4 6 7 7 5 2 3 5 5 18 30 11 11 10 7 5 6 7 7 7 6 5 6 5 4 4 4 3 2 2 1 1 2 2 2
5 10 8 6 6 6 6 7 7 7 6 6 5 7 5 4 4 8 12 11 11 9 7 7 7 6 7 7 6 5 5 5 5 4 4 4 3 3 3 2 1 2 2
5 6 9 5 5 6 5 6 6 5 6 6 6 4 9 7 10 12 12 10 9 10 8 8 7 6 7 6 6 6 5 5 5 5 5 4 4 3 3 3 3 3 3
5 5 4 5 4 5 5 5 5 6 6 6 4 5 14 10 11 10 10 10 8 7 7 8 7 8 9 9 9 8 7 7 6 6 5 5 5 4 3 3 3 3 1
5 5 4 3 5 5 5 5 5 6 5 5 6 7 8 10 10 9 8 8 7 6 6 7 8 8 7 8 8 9 10 9 8 7 6 6 5 4 3 3 3 2 2
5 5 5 4 4 4 5 5 5 5 4 4 4 5 5 5 5 5 6 7 6 5 7 8 8 11 9 8 7 7 6 6 8 8 8 6 5 5 3 3 3 3 2
5 5 5 5 6 6 5 5 6 6 5 6 6 6 7 7 6 6 5 4 7 9 10 9 7 11 14 13 11 11 10 16 10 10 6 7 7 8 5 3 4 2 3
6 6 5 5 5 6 7 7 9 8 8 7 7 6 7 7 7 8 9 9 9 9 9 8 10 14 14 12 13 14 16 16 12 11 8 6 6 5 5 5 6 3 3
Wind_Direction
188 177 164 169 175 171 190 205 206 143 184 158 201 173 214 233 206 238 228 212 187 215 229 199 248 214 205 207 200 177 191 173 211 300 270 337 317 301 321 320 308 301 296
188 173 168 159 159 171 197 222 195 164 184 196 206 184 204 222 198 263 221 232 224 216 222 169 235 221 282 191 178 190 182 197 166 252 270 294 233 201 242 285 285 253 246
180 172 161 162 171 183 188 212 201 161 173 194 198 186 202 217 219 238 234 235 237 215 153 153 183 140 126 161 142 151 174 157 175 159 300 312 296 14 346 297 292 300 257
179 174 174 175 178 182 176 190 200 193 172 192 208 206 211 216 223 224 217 192 182 166 150 135 176 198 187 164 150 104 67 19 99 122 277 298 328 328 68 2 339 353 324
177 178 188 179 172 169 173 185 191 198 207 189 210 228 229 227 232 218 176 160 155 139 106 100 66 97 111 152 152 186 150 109 33 82 300 316 326 350 34 350 317 317 304
178 184 174 168 159 179 181 177 176 192 201 198 218 223 225 228 221 194 166 164 152 135 126 119 92 69 65 44 21 225 192 180 198 157 194 220 239 211 52 67 321 22 328
184 179 175 175 179 184 182 175 186 188 180 206 218 212 234 221 183 194 191 145 143 150 157 161 118 65 53 27 5 25 37 3 243 172 206 220 217 197 164 330 265 191 242
180 183 178 182 190 184 182 194 191 177 189 195 207 211 215 191 183 191 179 146 140 161 173 150 138 155 37 38 36 45 60 36 20 206 209 266 248 247 206 181 189 219 264
180 182 185 188 190 187 187 192 196 183 187 191 192 195 193 186 200 177 155 141 148 150 121 129 150 146 67 62 77 71 354 309 337 27 76 56 12 292 190 139 264 39 309
186 188 185 190 191 193 196 189 178 186 195 190 188 176 185 183 192 170 155 141 137 141 111 124 150 140 96 84 88 81 37 300 353 88 41 29 41 45 55 61 141 130 271
189 180 180 189 192 196 184 170 177 181 174 184 175 172 176 182 178 176 180 157 160 153 155 155 185 141 116 102 109 148 241 336 115 113 99 70 51 51 32 54 36 64 332
174 177 183 187 191 181 177 171 174 174 180 180 166 154 181 168 168 189 182 180 151 158 170 167 190 144 134 120 100 113 97 95 89 82 69 55 63 36 12 42 46 63 49
172 179 182 183 187 185 180 179 173 179 184 180 176 174 175 168 193 191 181 174 160 146 150 171 160 149 138 117 101 69 62 90 100 84 77 37 5 337 344 25 49 68 70
175 177 176 178 184 183 192 189 189 186 187 179 181 182 163 163 199 184 172 162 144 120 137 137 147 159 144 133 90 60 67 120 151 154 181 126 3 13 16 348 32 11 52
172 175 186 191 185 176 164 217 204 202 195 185 193 187 175 183 199 184 169 166 158 148 121 112 132 146 149 145 69 86 45 331 136 128 29 66 57 34 9 339 8 27 72
168 178 182 176 175 177 148 137 51 55 83 194 181 184 195 171 155 168 172 156 143 141 116 153 172 172 173 178 180 189 191 196 253 138 73 53 63 13 50 342 6 30 83
170 171 164 164 156 151 169 186 193 46 69 53 177 173 180 167 172 171 168 160 156 147 154 185 182 179 187 188 182 169 186 177 169 180 152 151 120 48 56 47 7 355 356
145 155 153 162 157 159 177 194 202 178 175 169 253 191 179 182 176 179 150 127 150 258 158 183 199 181 175 181 176 183 189 157 154 150 176 180 171 147 111 66 15 292 294
133 146 137 145 155 165 175 188 180 181 194 192 177 242 304 84 166 175 161 184 185 197 194 195 190 181 177 178 176 171 169 164 171 154 154 167 151 137 125 158 237 241 201
133 148 150 159 158 174 181 181 185 188 194 206 206 213 134 95 158 181 205 191 178 179 185 199 206 180 170 168 166 162 158 151 162 163 155 158 160 151 164 178 244 206 229
142 155 153 144 167 187 188 191 190 194 206 209 222 185 186 216 212 192 195 188 192 180 180 184 192 172 159 155 158 166 167 167 163 168 160 164 153 158 171 189 214 233 214
143 147 150 159 159 169 185 180 181 183 190 206 226 231 211 214 222 214 188 190 182 182 169 172 185 174 169 172 173 169 170 173 163 168 163 157 163 175 174 184 207 212 188
149 153 158 159 188 164 169 177 187 192 192 196 215 221 202 212 214 215 194 180 167 156 169 182 174 172 170 172 173 173 168 180 179 160 163 159 161 173 182 189 203 203 182
157 162 165 165 168 183 184 188 187 179 182 187 197 207 206 211 220 175 180 161 152 164 185 186 184 177 169 172 169 168 167 152 151 162 153 145 157 166 173 197 207 202 207
171 175 176 174 185 193 192 198 201 192 184 192 200 184 184 196 178 172 184 180 180 194 195 182 181 176 172 165 169 169 165 151 148 143 139 143 158 164 178 193 195 210 203
187 187 189 171 175 184 197 208 218 216 205 196 199 191 182 192 204 203 180 187 193 197 185 181 176 172 167 171 165 159 153 148 144 142 139 144 152 162 182 186 195 194 204